Location: Melbourne
(37.8170°S, 144.9670°E)
Time: 18:25:50
(UTC+10:00)

deb Explorer IX - All Passes

Search period start: 04 July 2015 00:00
Search period end: 14 July 2015 00:00
Orbit: 544 x 1153 km, 38.8° (Epoch: 02 July)

Date Brightness Start Highest point End Pass type
(mag) Time Alt. Az. Time Alt. Az. Time Alt. Az.
04 Jul - 09:17:58 10° N 09:23:12 21° NE 09:28:24 10° E daylight
04 Jul - 11:03:29 10° NW 11:10:43 56° NNE 11:17:11 10° E daylight
04 Jul - 12:51:31 10° W 12:58:39 87° S 13:04:43 10° E daylight
04 Jul - 14:40:06 10° W 14:46:38 89° S 14:52:06 10° E daylight
04 Jul - 16:28:35 10° W 16:34:04 42° NNW 16:38:41 10° NE daylight
05 Jul - 09:02:39 10° NNW 09:08:18 23° NE 09:13:53 10° E daylight
05 Jul - 10:48:29 10° NW 10:55:51 60° NNE 11:02:30 10° E daylight
05 Jul - 12:36:36 10° W 12:43:51 85° S 12:50:04 10° E daylight
05 Jul - 14:25:12 10° W 14:31:53 88° NNW 14:37:28 10° ENE daylight
05 Jul - 16:13:45 10° W 16:19:17 39° NNW 16:23:57 10° NE daylight
06 Jul - 08:47:25 10° NNW 08:53:22 26° NE 08:59:17 10° E daylight
06 Jul - 10:33:30 10° WNW 10:40:58 64° NNE 10:47:47 10° E daylight
06 Jul - 12:21:41 10° W 12:29:03 84° S 12:35:24 10° E daylight
06 Jul - 14:10:17 10° W 14:17:07 85° NNW 14:22:49 10° ENE daylight
06 Jul - 15:58:54 10° W 16:04:29 37° NNW 16:09:12 10° NE daylight
07 Jul - 08:32:13 10° NNW 08:38:26 29° NE 08:44:38 10° E daylight
07 Jul - 10:18:32 10° WNW 10:26:05 68° NNE 10:33:03 10° ESE daylight
07 Jul - 12:06:47 10° W 12:14:13 83° S 12:20:42 10° E daylight
07 Jul - 13:55:22 10° W 14:02:19 82° NNW 14:08:10 10° ENE daylight
07 Jul - 15:44:02 10° W 15:49:40 34° NNW 15:54:25 10° NNE daylight
08 Jul - 08:17:04 10° NNW 08:23:29 31° NE 08:29:56 10° E daylight
08 Jul - 10:03:34 10° WNW 10:11:11 71° NNE 10:18:17 10° ESE daylight
08 Jul - 11:51:52 10° W 11:59:22 83° S 12:06:00 10° E daylight
08 Jul - 13:40:26 10° WSW 13:47:30 79° NNW 13:53:28 10° ENE daylight
08 Jul - 15:29:11 10° W 15:34:49 32° NW 15:39:35 10° NNE daylight
09 Jul - 08:01:57 10° NNW 08:08:32 34° NNE 08:15:11 10° E daylight
09 Jul - 09:48:38 10° WNW 09:56:16 75° NNE 10:03:30 10° ESE daylight
09 Jul - 11:36:56 10° W 11:44:31 82° S 11:51:17 10° E daylight
09 Jul - 13:25:29 10° WSW 13:32:39 76° NNW 13:38:46 10° ENE daylight
09 Jul - 15:14:20 10° W 15:19:56 30° NW 15:24:45 10° NNE daylight
10 Jul - 07:46:51 10° NNW 07:53:34 37° NNE 08:00:25 10° E daylight
10 Jul - 09:33:42 10° WNW 09:41:21 78° NNE 09:48:41 10° ESE daylight
10 Jul - 11:22:01 10° W 11:29:40 83° S 11:36:32 10° E daylight
10 Jul - 13:10:32 10° WSW 13:17:48 73° NNW 13:24:02 10° ENE daylight
10 Jul - 14:59:29 10° W 15:05:03 28° NW 15:09:50 10° NNE daylight
11 Jul - 05:49:39 10° NNE 05:51:31 11° NE 05:53:51 10° ENE visible
11 Jul - 07:31:48 10° NW 07:38:35 40° NNE 07:45:36 10° E daylight
11 Jul - 09:18:47 10° WNW 09:26:26 81° NNE 09:33:52 10° ESE daylight
11 Jul - 11:07:06 10° W 11:14:47 83° S 11:21:46 10° E daylight
11 Jul - 12:55:35 10° WSW 13:02:55 69° NNW 13:09:16 10° ENE daylight
11 Jul - 14:44:38 10° W 14:50:08 26° NW 14:54:54 10° NNE daylight
12 Jul - 05:33:48 10° NNE 05:36:32 13° NE 05:39:45 10° ENE visible
12 Jul - 07:16:47 10° NW 07:23:37 43° NNE 07:30:45 10° E daylight
12 Jul - 09:03:52 10° WNW 09:11:30 84° NNE 09:19:01 10° E daylight
12 Jul - 10:52:10 10° W 10:59:53 84° S 11:07:00 10° E daylight
12 Jul - 12:40:38 10° WSW 12:48:01 66° NNW 12:54:28 10° ENE daylight
12 Jul - 14:29:47 10° W 14:35:12 24° NW 14:39:55 10° NNE daylight
13 Jul - 05:18:14 10° NNE 05:21:33 14° NE 05:25:22 10° ENE visible
13 Jul - 07:01:47 10° NW 07:08:38 46° NNE 07:15:52 10° E visible
13 Jul - 08:48:58 10° WNW 08:56:34 87° NNE 09:04:09 10° E daylight
13 Jul - 10:37:15 10° W 10:44:59 85° S 10:52:11 10° E daylight
13 Jul - 12:25:41 10° WSW 12:33:05 63° NNW 12:39:39 10° NE daylight
13 Jul - 14:14:58 10° W 14:20:15 22° NW 14:24:53 10° N daylight
